Tracking 23582 objects as of 31-Jul-2021
HD Live streaming from Space Station
objects crossing your sky now

SWAMPSAT-2

Track SWAMPSAT-2 now!
10-day predictions
SWAMPSAT-2 is classified as:


NORAD ID: 45115
Int'l Code: 2019-071E
Perigee: 392.9 km
Apogee: 403.2 km
Inclination: 51.6 °
Period: 92.4 minutes
Semi major axis: 6769 km
RCS: Unknown
Launch date: November 2, 2019
Source: United States (US)
Launch site: WALLOPS ISLAND (WLPIS)

Uplink (MHz):
Downlink (MHz): 145.875/436.600/2432.000
Beacon (MHz):
Mode: 9k6 GMSK/3Mbps QPSK
Call sign: WK2XID
Status: Active

aabbcc
Your satellite tracking list
Your tracking list is empty




NASA's NSSDC Master Catalog

Two Line Element Set (TLE):
1 45115U 19071E   21211.87070276  .00080282  00000-0  10117-2 0  9990
2 45115  51.6326 158.7612 0007661 100.5949 259.5907 15.58875113 84204
Source of the keplerian elements: AFSPC